Time,TemperatureF,DewpointF,PressureIn,WindDirection,WindDirectionDegrees,WindSpeedMPH,WindSpeedGustMPH,Humidity,HourlyPrecipIn,Conditions,Clouds,dailyrainin,SoftwareType,DateUTC
2013-01-22 00:13:00,21.9,7.0,29.89,SSE,147,6.0,-999.0,54,-99.99,,,0.00,weatherlink.com 1.10,2013-01-22 05:13:00,
2013-01-22 00:28:00,21.4,7.0,29.89,NW,308,7.0,-999.0,55,-99.99,,,0.00,weatherlink.com 1.10,2013-01-22 05:28:00,
2013-01-22 00:43:00,21.0,7.0,29.88,South,176,1.0,-999.0,56,-99.99,,,0.00,weatherlink.com 1.10,2013-01-22 05:43:00,
2013-01-22 00:58:00,20.5,7.0,29.88,SSW,205,6.0,-999.0,55,-99.99,,,0.00,weatherlink.com 1.10,2013-01-22 05:58:00,
2013-01-22 01:13:00,20.0,5.0,29.89,ESE,119,3.0,-999.0,53,-99.99,,,0.00,weatherlink.com 1.10,2013-01-22 06:13:00,
2013-01-22 01:28:00,19.7,5.0,29.89,SSW,200,1.0,-999.0,54,-99.99,,,0.00,weatherlink.com 1.10,2013-01-22 06:28:00,
2013-01-22 01:43:00,19.2,7.0,29.89,SSW,206,3.0,-999.0,58,-99.99,,,0.00,weatherlink.com 1.10,2013-01-22 06:43:00,
2013-01-22 01:58:00,18.6,5.0,29.89,West,280,4.0,-999.0,56,-99.99,,,0.00,weatherlink.com 1.10,2013-01-22 06:58:00,
2013-01-22 02:13:00,18.3,4.0,29.90,North,359,1.0,-999.0,53,-99.99,,,0.00,weatherlink.com 1.10,2013-01-22 07:13:00,
2013-01-22 02:28:00,18.0,3.0,29.92,NNE,24,1.0,-999.0,51,-99.99,,,0.00,weatherlink.com 1.10,2013-01-22 07:28:00,
2013-01-22 02:43:00,17.7,3.0,29.92,South,188,2.0,-999.0,53,-99.99,,,0.00,weatherlink.com 1.10,2013-01-22 07:43:00,
2013-01-22 02:58:00,17.3,4.0,29.93,South,169,6.0,-999.0,55,-99.99,,,0.00,weatherlink.com 1.10,2013-01-22 07:58:00,
2013-01-22 03:13:00,17.2,5.0,29.93,WSW,240,6.0,-999.0,58,-99.99,,,0.00,weatherlink.com 1.10,2013-01-22 08:13:00,
2013-01-22 03:28:00,16.7,4.0,29.94,West,268,6.0,-999.0,58,-99.99,,,0.00,weatherlink.com 1.10,2013-01-22 08:28:00,
2013-01-22 03:43:00,16.4,3.0,29.95,South,171,7.0,-999.0,56,-99.99,,,0.00,weatherlink.com 1.10,2013-01-22 08:43:00,
2013-01-22 03:58:00,16.1,2.0,29.95,SE,140,8.0,-999.0,54,-99.99,,,0.00,weatherlink.com 1.10,2013-01-22 08:58:00,
2013-01-22 04:13:00,15.6,2.0,29.95,SSW,192,5.0,-999.0,56,-99.99,,,0.00,weatherlink.com 1.10,2013-01-22 09:13:00,
2013-01-22 04:28:00,15.2,2.0,29.96,South,182,6.0,-999.0,57,-99.99,,,0.00,weatherlink.com 1.10,2013-01-22 09:28:00,
2013-01-22 04:43:00,15.2,2.0,29.97,SW,216,5.0,-999.0,56,-99.99,,,0.00,weatherlink.com 1.10,2013-01-22 09:43:00,
2013-01-22 04:58:00,14.9,2.0,29.97,SW,220,4.0,-999.0,57,-99.99,,,0.00,weatherlink.com 1.10,2013-01-22 09:58:00,
2013-01-22 05:13:00,14.6,3.0,29.98,WSW,250,0.0,-999.0,59,-99.99,,,0.00,weatherlink.com 1.10,2013-01-22 10:13:00,
2013-01-22 05:28:00,14.3,2.0,29.99,SSW,206,7.0,-999.0,58,-99.99,,,0.00,weatherlink.com 1.10,2013-01-22 10:28:00,
2013-01-22 05:43:00,14.0,1.0,30.01,NW,311,7.0,-999.0,57,-99.99,,,0.00,weatherlink.com 1.10,2013-01-22 10:43:00,
2013-01-22 05:58:00,13.8,1.0,30.01,SSE,160,6.0,-999.0,57,-99.99,,,0.00,weatherlink.com 1.10,2013-01-22 10:58:00,
2013-01-22 06:14:00,13.6,0.0,30.02,NNW,333,4.0,-999.0,54,-99.99,,,0.00,weatherlink.com 1.10,2013-01-22 11:14:00,
2013-01-22 06:29:00,13.6,-1.0,30.04,ESE,120,4.0,-999.0,53,-99.99,,,0.00,weatherlink.com 1.10,2013-01-22 11:29:00,
2013-01-22 06:44:00,13.3,-1.0,30.05,SE,145,2.0,-999.0,54,-99.99,,,0.00,weatherlink.com 1.10,2013-01-22 11:44:00,
2013-01-22 06:59:00,13.1,0.0,30.07,North,0,1.0,-999.0,56,-99.99,,,0.00,weatherlink.com 1.10,2013-01-22 11:59:00,
2013-01-22 07:14:00,12.9,0.0,30.08,South,172,6.0,-999.0,56,-99.99,,,0.00,weatherlink.com 1.10,2013-01-22 12:14:00,
2013-01-22 07:29:00,12.6,-1.0,30.09,North,357,2.0,-999.0,56,-99.99,,,0.00,weatherlink.com 1.10,2013-01-22 12:29:00,
2013-01-22 07:44:00,12.4,-1.0,30.09,ESE,109,1.0,-999.0,55,-99.99,,,0.00,weatherlink.com 1.10,2013-01-22 12:44:00,
2013-01-22 07:59:00,12.4,-1.0,30.12,SE,140,2.0,-999.0,56,-99.99,,,0.00,weatherlink.com 1.10,2013-01-22 12:59:00,
2013-01-22 08:14:00,12.4,0.0,30.12,SSE,165,3.0,-999.0,57,-99.99,,,0.00,weatherlink.com 1.10,2013-01-22 13:14:00,
2013-01-22 08:29:00,12.6,-1.0,30.13,SSW,198,2.0,-999.0,56,-99.99,,,0.00,weatherlink.com 1.10,2013-01-22 13:29:00,
2013-01-22 08:44:00,13.8,0.0,30.12,SW,230,5.0,-999.0,54,-99.99,,,0.00,weatherlink.com 1.10,2013-01-22 13:44:00,
2013-01-22 08:59:00,14.8,-1.0,30.13,SSW,192,0.0,-999.0,50,-99.99,,,0.00,weatherlink.com 1.10,2013-01-22 13:59:00,
2013-01-22 09:14:00,15.6,-1.0,30.14,SSW,205,3.0,-999.0,48,-99.99,,,0.00,weatherlink.com 1.10,2013-01-22 14:14:00,
2013-01-22 09:29:00,16.1,-2.0,30.14,NW,323,1.0,-999.0,44,-99.99,,,0.00,weatherlink.com 1.10,2013-01-22 14:29:00,
2013-01-22 09:45:00,17.0,-3.0,30.15,SSE,154,0.0,-999.0,42,-99.99,,,0.00,weatherlink.com 1.10,2013-01-22 14:45:00,
2013-01-22 10:00:00,17.5,-2.0,30.15,South,186,4.0,-999.0,42,-99.99,,,0.00,weatherlink.com 1.10,2013-01-22 15:00:00,
2013-01-22 10:15:00,18.3,-3.0,30.15,South,169,5.0,-999.0,39,-99.99,,,0.00,weatherlink.com 1.10,2013-01-22 15:15:00,
2013-01-22 10:30:00,18.1,-4.0,30.17,NNE,18,2.0,-999.0,38,-99.99,,,0.00,weatherlink.com 1.10,2013-01-22 15:30:00,
2013-01-22 10:45:00,19.5,-2.0,30.17,SSW,208,2.0,-999.0,38,-99.99,,,0.00,weatherlink.com 1.10,2013-01-22 15:45:00,
2013-01-22 11:00:00,19.4,-5.0,30.17,North,359,0.0,-999.0,34,-99.99,,,0.00,weatherlink.com 1.10,2013-01-22 16:00:00,
2013-01-22 11:15:00,19.7,-3.0,30.17,WSW,244,2.0,-999.0,36,-99.99,,,0.00,weatherlink.com 1.10,2013-01-22 16:15:00,
2013-01-22 11:30:00,21.0,-3.0,30.18,South,178,14.0,-999.0,35,-99.99,,,0.00,weatherlink.com 1.10,2013-01-22 16:30:00,
2013-01-22 11:45:00,20.2,-5.0,30.18,NNW,337,1.0,-999.0,32,-99.99,,,0.00,weatherlink.com 1.10,2013-01-22 16:45:00,
2013-01-22 12:00:00,21.3,-4.0,30.17,South,184,5.0,-999.0,32,-99.99,,,0.00,weatherlink.com 1.10,2013-01-22 17:00:00,
2013-01-22 12:30:00,21.3,-5.0,30.17,NNW,344,1.0,-999.0,31,-99.99,,,0.00,weatherlink.com 1.10,2013-01-22 17:30:00,
2013-01-22 12:45:00,21.4,-4.0,30.16,South,182,3.0,-999.0,32,-99.99,,,0.00,weatherlink.com 1.10,2013-01-22 17:45:00,
2013-01-22 13:00:00,21.3,-5.0,30.16,SW,230,6.0,-999.0,31,-99.99,,,0.00,weatherlink.com 1.10,2013-01-22 18:00:00,
2013-01-22 13:16:00,21.6,-7.0,30.15,SSW,196,5.0,-999.0,28,-99.99,,,0.00,weatherlink.com 1.10,2013-01-22 18:16:00,
2013-01-22 13:31:00,22.4,-4.0,30.15,NNW,340,2.0,-999.0,31,-99.99,,,0.00,weatherlink.com 1.10,2013-01-22 18:31:00,
2013-01-22 13:46:00,22.7,-5.0,30.14,WNW,292,1.0,-999.0,30,-99.99,,,0.00,weatherlink.com 1.10,2013-01-22 18:46:00,
2013-01-22 14:01:00,22.7,-5.0,30.14,West,271,3.0,-999.0,30,-99.99,,,0.00,weatherlink.com 1.10,2013-01-22 19:01:00,
2013-01-22 14:16:00,21.6,-6.0,30.15,NW,323,6.0,-999.0,29,-99.99,,,0.00,weatherlink.com 1.10,2013-01-22 19:16:00,
2013-01-22 14:31:00,21.3,-5.0,30.17,WNW,294,3.0,-999.0,31,-99.99,,,0.00,weatherlink.com 1.10,2013-01-22 19:31:00,
2013-01-22 15:01:00,22.2,-6.0,30.16,SE,141,2.0,-999.0,29,-99.99,,,0.00,weatherlink.com 1.10,2013-01-22 20:01:00,
2013-01-22 15:16:00,22.1,-5.0,30.16,South,188,7.0,-999.0,30,-99.99,,,0.00,weatherlink.com 1.10,2013-01-22 20:16:00,
2013-01-22 15:31:00,21.8,-6.0,30.16,NNW,335,0.0,-999.0,29,-99.99,,,0.00,weatherlink.com 1.10,2013-01-22 20:31:00,
2013-01-22 15:46:00,21.3,-5.0,30.18,SW,217,3.0,-999.0,31,-99.99,,,0.00,weatherlink.com 1.10,2013-01-22 20:46:00,
2013-01-22 16:01:00,21.4,-6.0,30.18,SSE,165,0.0,-999.0,29,-99.99,,,0.00,weatherlink.com 1.10,2013-01-22 21:01:00,
2013-01-22 16:17:00,21.0,-6.0,30.18,NNE,30,2.0,-999.0,30,-99.99,,,0.00,weatherlink.com 1.10,2013-01-22 21:17:00,
2013-01-22 16:31:00,20.6,-6.0,30.19,West,271,7.0,-999.0,31,-99.99,,,0.00,weatherlink.com 1.10,2013-01-22 21:31:00,
2013-01-22 16:47:00,20.2,-6.0,30.18,WNW,284,0.0,-999.0,31,-99.99,,,0.00,weatherlink.com 1.10,2013-01-22 21:47:00,
2013-01-22 17:18:00,19.2,-4.0,30.20,NW,309,2.0,-999.0,35,-99.99,,,0.00,weatherlink.com 1.10,2013-01-22 22:18:00,
2013-01-22 17:32:00,18.6,-6.0,30.21,SSW,213,1.0,-999.0,34,-99.99,,,0.00,weatherlink.com 1.10,2013-01-22 22:32:00,
2013-01-22 17:47:00,18.3,-4.0,30.22,SSW,196,2.0,-999.0,37,-99.99,,,0.00,weatherlink.com 1.10,2013-01-22 22:47:00,
2013-01-22 18:02:00,17.8,-4.0,30.22,North,0,1.0,-999.0,38,-99.99,,,0.00,weatherlink.com 1.10,2013-01-22 23:02:00,
2013-01-22 18:17:00,17.5,-3.0,30.23,SSW,203,0.0,-999.0,41,-99.99,,,0.00,weatherlink.com 1.10,2013-01-22 23:17:00,
2013-01-22 18:32:00,17.2,-3.0,30.23,NNW,328,0.0,-999.0,41,-99.99,,,0.00,weatherlink.com 1.10,2013-01-22 23:32:00,
2013-01-22 18:47:00,16.9,-3.0,30.23,South,182,2.0,-999.0,42,-99.99,,,0.00,weatherlink.com 1.10,2013-01-22 23:47:00,
2013-01-22 19:02:00,16.5,-3.0,30.23,NW,306,0.0,-999.0,42,-99.99,,,0.00,weatherlink.com 1.10,2013-01-23 00:02:00,
2013-01-22 19:17:00,16.2,-3.0,30.24,South,182,1.0,-999.0,43,-99.99,,,0.00,weatherlink.com 1.10,2013-01-23 00:17:00,
2013-01-22 19:32:00,16.4,-3.0,30.23,WNW,294,0.0,-999.0,42,-99.99,,,0.00,weatherlink.com 1.10,2013-01-23 00:32:00,
2013-01-22 19:47:00,16.2,-2.0,30.23,South,186,0.0,-999.0,44,-99.99,,,0.00,weatherlink.com 1.10,2013-01-23 00:47:00,
2013-01-22 20:03:00,16.2,-3.0,30.23,WSW,253,0.0,-999.0,42,-99.99,,,0.00,weatherlink.com 1.10,2013-01-23 01:03:00,
2013-01-22 20:18:00,16.2,-3.0,30.23,SW,230,5.0,-999.0,42,-99.99,,,0.00,weatherlink.com 1.10,2013-01-23 01:18:00,
2013-01-22 20:33:00,16.2,-3.0,30.22,SW,216,0.0,-999.0,43,-99.99,,,0.00,weatherlink.com 1.10,2013-01-23 01:33:00,
2013-01-22 20:48:00,16.1,-2.0,30.23,SSW,210,0.0,-999.0,44,-99.99,,,0.00,weatherlink.com 1.10,2013-01-23 01:48:00,
2013-01-22 21:03:00,16.2,-3.0,30.24,West,280,0.0,-999.0,43,-99.99,,,0.00,weatherlink.com 1.10,2013-01-23 02:03:00,
2013-01-22 21:18:00,16.4,-3.0,30.25,WNW,295,2.0,-999.0,43,-99.99,,,0.00,weatherlink.com 1.10,2013-01-23 02:18:00,
2013-01-22 21:33:00,16.5,-4.0,30.23,SW,219,0.0,-999.0,40,-99.99,,,0.00,weatherlink.com 1.10,2013-01-23 02:33:00,
2013-01-22 21:48:00,16.7,-4.0,30.24,NNW,340,1.0,-999.0,40,-99.99,,,0.00,weatherlink.com 1.10,2013-01-23 02:48:00,
2013-01-22 22:03:00,16.7,-4.0,30.24,WNW,289,2.0,-999.0,40,-99.99,,,0.00,weatherlink.com 1.10,2013-01-23 03:03:00,
2013-01-22 22:18:00,16.5,-4.0,30.23,SSE,157,1.0,-999.0,40,-99.99,,,0.00,weatherlink.com 1.10,2013-01-23 03:18:00,
2013-01-22 22:33:00,16.7,-3.0,30.22,ESE,113,2.0,-999.0,42,-99.99,,,0.00,weatherlink.com 1.10,2013-01-23 03:33:00,
2013-01-22 22:48:00,16.5,-4.0,30.23,SE,136,1.0,-999.0,40,-99.99,,,0.00,weatherlink.com 1.10,2013-01-23 03:48:00,
2013-01-22 23:03:00,16.9,-4.0,30.23,SSW,213,1.0,-999.0,39,-99.99,,,0.00,weatherlink.com 1.10,2013-01-23 04:03:00,
2013-01-22 23:18:00,16.9,-3.0,30.23,NW,318,0.0,-999.0,41,-99.99,,,0.00,weatherlink.com 1.10,2013-01-23 04:18:00,
2013-01-22 23:34:00,16.7,-3.0,30.22,South,191,3.0,-999.0,41,-99.99,,,0.00,weatherlink.com 1.10,2013-01-23 04:34:00,
2013-01-22 23:49:00,16.5,-4.0,30.22,South,178,2.0,-999.0,41,-99.99,,,0.00,weatherlink.com 1.10,2013-01-23 04:49:00,